Weather History for KULM - October, 2012

Change the Weather History Date:

Saturday, October 27, 2012

  Actual Average Record
Temperature  
Mean Temperature 34 °F -  
Max Temperature 42 °F 58 °F 79 °F (1983)
Min Temperature 26 °F 37 °F 14 °F (1976)
Degree Days  
Heating Degree Days 31    
Moisture  
Dew Point 24 °F    
Average Humidity 65    
Maximum Humidity 93    
Minimum Humidity 42    
Precipitation  
Precipitation 0.00 in - - ()
Sea Level Pressure  
Sea Level Pressure 30.33 in    
Wind  
Wind Speed 4 mph (SSW)    
Max Wind Speed 10 mph    
Max Gust Speed -    
Visibility 10 miles    
Events      
Averages and records for this station are not official NWS values.
T = Trace of Precipitation, MM = Missing Value Source: NWS Daily Summary

Daily Weather History Graph

Daily Weather History Graph

Search for Another Location

Airport or City:

Trip Planner

Search our weather history database for the weather conditions in past years. The results will help you decide how hot, cold, wet, or windy it might be!

Date:

Astronomy

Oct. 27, 2012 Rise Set
Actual Time 7:49 AM CDT 6:13 PM CDT
Civil Twilight 7:19 AM CDT 6:43 PM CDT
Nautical Twilight 6:45 AM CDT 7:17 PM CDT
Astronomical Twilight 6:11 AM CDT 7:51 PM CDT
Moon 5:02 PM CDT (10/27) 5:41 AM CDT (10/27)
Length of Visible Light 11h 24m
Length of Day
10h 24m
Waxing Gibbous, 96% of the Moon is Illuminated
Oct 27
Waxing Gibbous
Oct 29
Full
Nov 6
Last Quarter
Nov 13
New
Nov 20
First Quarter

Hourly Weather History & Observations

Time (CDT) Temp. Windchill Dew Point Humidity Pressure Visibility Wind Dir Wind Speed Gust Speed Precip Events Conditions
12:13 AM 33.8 °F 30.8 °F 26.6 °F 75% 30.35 in 10.0 mi WSW 3.5 mph - N/A   Overcast
12:33 AM 33.8 °F 30.8 °F 26.6 °F 75% 30.35 in 10.0 mi WSW 3.5 mph - N/A   Overcast
12:53 AM 33.8 °F 29.6 °F 26.6 °F 75% 30.35 in 10.0 mi WSW 4.6 mph - N/A   Overcast
1:12 AM 33.8 °F 29.6 °F 26.6 °F 75% 30.35 in 10.0 mi WSW 4.6 mph - N/A   Overcast
1:33 AM 33.8 °F 29.6 °F 26.6 °F 75% 30.35 in 10.0 mi WSW 4.6 mph - N/A   Overcast
2:12 AM 33.8 °F 30.8 °F 26.6 °F 75% 30.34 in 10.0 mi West 3.5 mph - N/A   Mostly Cloudy
2:53 AM 33.8 °F 30.8 °F 26.6 °F 75% 30.33 in 10.0 mi WSW 3.5 mph - N/A   Overcast
3:12 AM 33.8 °F 30.8 °F 26.6 °F 75% 30.33 in 10.0 mi SW 3.5 mph - N/A   Overcast
3:33 AM 32.0 °F - 26.6 °F 80% 30.33 in 10.0 mi Calm Calm - N/A   Scattered Clouds
3:53 AM 32.0 °F 27.5 °F 26.6 °F 80% 30.33 in 10.0 mi West 4.6 mph - N/A   Clear
4:12 AM 30.2 °F 26.7 °F 26.6 °F 86% 30.33 in 10.0 mi WSW 3.5 mph - N/A   Clear
4:33 AM 30.2 °F 26.7 °F 26.6 °F 86% 30.33 in 10.0 mi SW 3.5 mph - N/A   Clear
4:53 AM 30.2 °F 25.4 °F 24.8 °F 80% 30.34 in 10.0 mi WSW 4.6 mph - N/A   Clear
5:12 AM 30.2 °F 25.4 °F 24.8 °F 80% 30.34 in 10.0 mi SW 4.6 mph - N/A   Clear
5:33 AM 30.2 °F 25.4 °F 24.8 °F 80% 30.34 in 10.0 mi SW 4.6 mph - N/A   Clear
5:53 AM 28.4 °F 23.3 °F 24.8 °F 86% 30.34 in 10.0 mi SSW 4.6 mph - N/A   Clear
6:12 AM 28.4 °F 23.3 °F 24.8 °F 86% 30.34 in 10.0 mi SW 4.6 mph - N/A   Clear
6:33 AM 28.4 °F 23.3 °F 24.8 °F 86% 30.34 in 10.0 mi SSW 4.6 mph - N/A   Clear
6:53 AM 28.4 °F 23.3 °F 23.0 °F 80% 30.34 in 10.0 mi SSW 4.6 mph - N/A   Clear
7:13 AM 28.4 °F 24.6 °F 23.0 °F 80% 30.34 in 10.0 mi SSW 3.5 mph - N/A   Clear
7:33 AM 28.4 °F 24.6 °F 23.0 °F 80% 30.35 in 10.0 mi SSW 3.5 mph - N/A   Clear
7:52 AM 28.4 °F 24.6 °F 23.0 °F 80% 30.35 in 10.0 mi WSW 3.5 mph - N/A   Clear
8:13 AM 26.6 °F - 21.2 °F 80% 30.36 in 10.0 mi Calm Calm - N/A   Clear
8:33 AM 26.6 °F 22.6 °F 24.8 °F 93% 30.36 in 10.0 mi SW 3.5 mph - N/A   Clear
8:52 AM 28.4 °F 24.6 °F 24.8 °F 86% 30.37 in 10.0 mi SW 3.5 mph - N/A   Clear
9:33 AM 30.2 °F 25.4 °F 24.8 °F 80% 30.37 in 10.0 mi WSW 4.6 mph - N/A   Clear
10:13 AM 33.8 °F 28.6 °F 26.6 °F 75% 30.37 in 10.0 mi WSW 5.8 mph - N/A   Clear
10:33 AM 35.6 °F 30.7 °F 26.6 °F 70% 30.37 in 10.0 mi WSW 5.8 mph - N/A   Clear
10:52 AM 37.4 °F 32.8 °F 26.6 °F 65% 30.37 in 10.0 mi West 5.8 mph - N/A   Clear
11:13 AM 39.2 °F 35.0 °F 26.6 °F 61% 30.37 in 10.0 mi West 5.8 mph - N/A   Clear
11:33 AM 39.2 °F 35.0 °F 26.6 °F 61% 30.37 in 10.0 mi SW 5.8 mph - N/A   Clear
11:52 AM 39.2 °F 37.0 °F 24.8 °F 56% 30.36 in 10.0 mi SW 3.5 mph - N/A   Clear
12:13 PM 41.0 °F 36.4 °F 26.6 °F 57% 30.36 in 10.0 mi WSW 6.9 mph - N/A   Clear
12:33 PM 41.0 °F 34.7 °F 24.8 °F 53% 30.35 in 10.0 mi SW 10.4 mph - N/A   Clear
12:52 PM 41.0 °F 35.8 °F 23.0 °F 49% 30.34 in 10.0 mi SSW 8.1 mph - N/A   Scattered Clouds
1:13 PM 42.8 °F 38.0 °F 21.2 °F 42% 30.34 in 10.0 mi SSW 8.1 mph - N/A   Mostly Cloudy
1:32 PM 42.8 °F 40.1 °F 21.2 °F 42% 30.33 in 10.0 mi SSW 4.6 mph - N/A   Mostly Cloudy
1:53 PM 42.8 °F 37.0 °F 21.2 °F 42% 30.32 in 10.0 mi SSW 10.4 mph - N/A   Scattered Clouds
2:13 PM 42.8 °F 40.1 °F 23.0 °F 46% 30.31 in 10.0 mi WSW 4.6 mph - N/A   Clear
2:33 PM 41.0 °F 36.4 °F 21.2 °F 45% 30.31 in 10.0 mi SSW 6.9 mph - N/A   Clear
2:53 PM 41.0 °F 38.0 °F 21.2 °F 45% 30.30 in 10.0 mi SW 4.6 mph - N/A   Clear
3:13 PM 41.0 °F 39.0 °F 21.2 °F 45% 30.30 in 10.0 mi SSW 3.5 mph - N/A   Clear
3:32 PM 41.0 °F 39.0 °F 21.2 °F 45% 30.29 in 10.0 mi SSW 3.5 mph - N/A   Clear
3:53 PM 41.0 °F 37.1 °F 21.2 °F 45% 30.29 in 10.0 mi SSW 5.8 mph - N/A   Clear
4:13 PM 41.0 °F 38.0 °F 21.2 °F 45% 30.29 in 10.0 mi South 4.6 mph - N/A   Clear
4:32 PM 41.0 °F 39.0 °F 21.2 °F 45% 30.28 in 10.0 mi SSW 3.5 mph - N/A   Clear
4:53 PM 41.0 °F 37.1 °F 23.0 °F 49% 30.28 in 10.0 mi SSW 5.8 mph - N/A   Clear
5:13 PM 41.0 °F 39.0 °F 21.2 °F 45% 30.28 in 10.0 mi SW 3.5 mph - N/A   Clear
5:32 PM 39.2 °F - 23.0 °F 52% 30.28 in 10.0 mi Calm Calm - N/A   Clear
5:53 PM 39.2 °F - 21.2 °F 49% 30.29 in 10.0 mi Calm Calm - N/A   Clear
6:13 PM 37.4 °F - 23.0 °F 56% 30.29 in 10.0 mi Calm Calm - N/A   Clear
6:32 PM 37.4 °F - 24.8 °F 60% 30.29 in 10.0 mi Calm Calm - N/A   Clear
6:53 PM 37.4 °F 34.9 °F 21.2 °F 52% 30.30 in 10.0 mi SSE 3.5 mph - N/A   Clear
7:13 PM 37.4 °F 34.9 °F 24.8 °F 60% 30.30 in 10.0 mi SSE 3.5 mph - N/A   Clear
7:32 PM 37.4 °F 34.9 °F 24.8 °F 60% 30.30 in 10.0 mi SSE 3.5 mph - N/A   Clear
7:53 PM 37.4 °F 34.9 °F 24.8 °F 60% 30.30 in 10.0 mi SSE 3.5 mph - N/A   Scattered Clouds
8:13 PM 37.4 °F 34.9 °F 23.0 °F 56% 30.31 in 10.0 mi SSE 3.5 mph - N/A   Scattered Clouds
8:32 PM 37.4 °F 34.9 °F 23.0 °F 56% 30.31 in 10.0 mi SSE 3.5 mph - N/A   Scattered Clouds
8:53 PM 37.4 °F 34.9 °F 24.8 °F 60% 30.32 in 10.0 mi South 3.5 mph - N/A   Mostly Cloudy
9:13 PM 37.4 °F 34.9 °F 23.0 °F 56% 30.32 in 10.0 mi SSE 3.5 mph - N/A   Mostly Cloudy
9:32 PM 35.6 °F 32.8 °F 23.0 °F 60% 30.32 in 10.0 mi SSE 3.5 mph - N/A   Overcast
9:53 PM 33.8 °F 29.6 °F 23.0 °F 65% 30.32 in 10.0 mi SSE 4.6 mph - N/A   Scattered Clouds
10:12 PM 35.6 °F 31.7 °F 23.0 °F 60% 30.31 in 10.0 mi SSE 4.6 mph - N/A   Clear
10:33 PM 33.8 °F 29.6 °F 23.0 °F 65% 30.31 in 10.0 mi SSE 4.6 mph - N/A   Clear
10:53 PM 33.8 °F 30.8 °F 23.0 °F 65% 30.31 in 10.0 mi SSE 3.5 mph - N/A   Clear
11:12 PM 33.8 °F 29.6 °F 24.8 °F 70% 30.31 in 10.0 mi SSE 4.6 mph - N/A   Clear
11:33 PM 33.8 °F 28.6 °F 24.8 °F 70% 30.31 in 10.0 mi SSE 5.8 mph - N/A   Clear
11:53 PM 32.0 °F 27.5 °F 24.8 °F 75% 30.31 in 10.0 mi SSE 4.6 mph - N/A   Scattered Clouds